New Castle, PA

2:22 AM EST on December 09, 2016 (GMT -0500)
New Castle Municipal

Weather History for KUCP - June, 2013

Change the Weather History Date:

Saturday, June 22, 2013

  Actual Average Record
Temperature  
Mean Temperature 73 °F -  
Max Temperature 89 °F 80 °F 96 °F (1931)
Min Temperature 57 °F 55 °F 37 °F (1992)
Cooling Degree Days 8    
Growing Degree Days 23 (Base 50)    
Moisture  
Dew Point 62 °F    
Average Humidity 76    
Maximum Humidity 100    
Minimum Humidity 43    
Precipitation  
Precipitation 0.00 in - - ()
Sea Level Pressure  
Sea Level Pressure 30.18 in    
Wind  
Wind Speed 2 mph (SW)    
Max Wind Speed 9 mph    
Max Gust Speed -    
Visibility 8 miles    
Events      
Averages and records for this station are not official NWS values.
T = Trace of Precipitation, MM = Missing Value Source: NWS Daily Summary

Daily Weather History Graph

Daily Weather History Graph

Search for Another Location

Airport or City:

Trip Planner

Search our weather history database for the weather conditions in past years. The results will help you decide how hot, cold, wet, or windy it might be!

Date:

Astronomy

Jun. 22, 2013 Rise Set
Actual Time 5:49 AM EDT 8:57 PM EDT
Civil Twilight 5:16 AM EDT 9:31 PM EDT
Nautical Twilight 4:33 AM EDT 10:14 PM EDT
Astronomical Twilight 3:41 AM EDT 11:05 PM EDT
Moon 8:10 PM EDT (6/22) 5:01 AM EDT (6/22)
Length of Visible Light 16h 15m
Length of Day
15h 07m
Waxing Gibbous, 99% of the Moon is Illuminated
Jun 22
Waxing Gibbous
Jun 23
Full
Jun 30
Last Quarter
Jul 8
New
Jul 15
First Quarter

Hourly Weather History & Observations

Time (EDT) Temp. Heat Index Dew Point Humidity Pressure Visibility Wind Dir Wind Speed Gust Speed Precip Events Conditions
12:56 AM 61.0 °F - 59.0 °F 93% 30.23 in 10.0 mi Calm Calm - N/A   Clear
1:56 AM 59.9 °F - 59.9 °F 100% 30.23 in 5.0 mi Calm Calm - N/A   Clear
2:56 AM 59.0 °F - 57.9 °F 96% 30.22 in 10.0 mi Calm Calm - N/A   Clear
3:41 AM 57.2 °F - 57.2 °F 100% 30.18 in 1.8 mi Calm Calm - N/A   Clear
3:46 AM 57.2 °F - 57.2 °F 100% 30.18 in 1.0 mi Calm Calm - N/A   Clear
3:56 AM 59.0 °F - 59.0 °F 100% 30.21 in 1.2 mi Calm Calm - N/A   Clear
3:58 AM 59.0 °F - 59.0 °F 100% 30.18 in 2.0 mi Calm Calm - N/A   Clear
4:08 AM 57.2 °F - 57.2 °F 100% 30.18 in 5.0 mi Calm Calm - N/A   Clear
4:29 AM 57.2 °F - 57.2 °F 100% 30.17 in 2.5 mi Calm Calm - N/A   Clear
4:38 AM 57.2 °F - 57.2 °F 100% 30.17 in 5.0 mi Calm Calm - N/A   Clear
4:56 AM 57.9 °F - 57.9 °F 100% 30.19 in 6.0 mi Calm Calm - N/A   Clear
5:56 AM 57.9 °F - 56.8 °F 96% 30.19 in 4.0 mi Calm Calm - N/A   Clear
6:56 AM 59.9 °F - 59.0 °F 97% 30.20 in 6.0 mi Calm Calm - N/A   Clear
7:56 AM 64.9 °F - 61.0 °F 87% 30.23 in 9.0 mi Calm Calm - N/A   Clear
8:56 AM 72.9 °F - 61.9 °F 68% 30.24 in 10.0 mi Variable 3.5 mph - N/A   Clear
9:56 AM 79.0 °F - 64.9 °F 62% 30.23 in 10.0 mi Variable 5.8 mph - N/A   Clear
10:56 AM 81.9 °F 83.9 °F 65.8 °F 58% 30.23 in 10.0 mi Variable 6.9 mph - N/A   Clear
11:56 AM 84.9 °F 88.2 °F 68.0 °F 57% 30.24 in 10.0 mi WSW 9.2 mph - N/A   Clear
12:56 PM 86.9 °F 88.9 °F 65.8 °F 49% 30.22 in 10.0 mi SW 6.9 mph - N/A   Scattered Clouds
1:56 PM 89.6 °F 92.2 °F 66.2 °F 46% 30.18 in 10.0 mi SW 6.9 mph - N/A   Scattered Clouds
2:56 PM 88.9 °F 90.0 °F 63.9 °F 43% 30.19 in 10.0 mi WSW 8.1 mph - N/A   Scattered Clouds
3:56 PM 88.9 °F 90.0 °F 63.9 °F 43% 30.17 in 10.0 mi Variable 4.6 mph - N/A   Partly Cloudy
4:56 PM 88.0 °F 89.0 °F 63.9 °F 44% 30.14 in 10.0 mi SW 6.9 mph - N/A   Clear
5:56 PM 86.9 °F 88.9 °F 65.8 °F 49% 30.12 in 10.0 mi Variable 4.6 mph - N/A   Clear
6:56 PM 84.9 °F 86.1 °F 63.9 °F 49% 30.12 in 10.0 mi Variable 6.9 mph - N/A   Clear
7:56 PM 82.9 °F 85.0 °F 65.8 °F 56% 30.12 in 10.0 mi Variable 3.5 mph - N/A   Clear
8:56 PM 79.0 °F - 65.8 °F 64% 30.13 in 10.0 mi Calm Calm - N/A   Clear
9:56 PM 77.9 °F - 65.8 °F 66% 30.14 in 10.0 mi Variable 3.5 mph - N/A   Scattered Clouds
10:56 PM 74.8 °F - 65.8 °F 73% 30.16 in 10.0 mi Calm Calm - N/A   Scattered Clouds
11:56 PM 73.9 °F - 66.9 °F 79% 30.16 in 10.0 mi Calm Calm - N/A   Clear